Tracking 29747 objects as of 10-Oct-2024
HD Live streaming from Space Station
objects crossing your sky now

DELTA 1 DEB

Track DELTA 1 DEB now!
10-day predictions


NORAD ID: 42645
Int'l Code: 1975-052ME
Perigee: 1,101.0 km
Apogee: 1,516.0 km
Inclination: 99.7 °
Period: 111.6 minutes
Semi major axis: 7679 km
RCS: Unknown
Launch date: June 12, 1975
Source: United States (US)
Launch site: AIR FORCE WESTERN TEST RANGE (AFWTR)

Note: This is SATELLITE DEBRIS
Your satellite tracking list
Your tracking list is empty




NASA's NSSDC Master Catalog

Two Line Element Set (TLE):
1 42645U 75052ME  24280.65281612 -.00000023  00000-0  40633-4 0  9993
2 42645  99.6952 241.0923 0270227 143.4855  30.9256 12.90037419383144
Source of the keplerian elements: AFSPC